EZY67T EGAE-EGNV

Flight info

Callsign EZY67T
Flight time N/A
Altitude 23000
Route BLACA DCT SHAPP
Aircraft A319/M-SDE3FGHIRWY/LB1

Departure

Time N/A
Airport City of Derry Airport (EGAE)

Arrival

Time 2026-05-01 10:23
Airport Teesside International Airport (EGNV)
Time Latitude Longitude Altitude Speed Heading
2026-05-01 10:01 54.51908 -2.25315 12446 ft 382 kts 88°
2026-05-01 10:02 54.52130 -2.20811 11939 ft 376 kts 88°
2026-05-01 10:02 54.52348 -2.16379 11405 ft 371 kts 88°
2026-05-01 10:02 54.52561 -2.12007 10874 ft 366 kts 88°
2026-05-01 10:02 54.52769 -2.07677 10431 ft 358 kts 88°
2026-05-01 10:03 54.52972 -2.03467 10119 ft 346 kts 89°
2026-05-01 10:03 54.53164 -1.99404 9770 ft 337 kts 89°
2026-05-01 10:03 54.53350 -1.95417 9390 ft 330 kts 89°
2026-05-01 10:03 54.53531 -1.91508 8981 ft 325 kts 89°
2026-05-01 10:04 54.53707 -1.87677 8583 ft 320 kts 89°
2026-05-01 10:04 54.53880 -1.83880 8192 ft 315 kts 89°
2026-05-01 10:04 54.54050 -1.80152 7811 ft 309 kts 89°
2026-05-01 10:04 54.54214 -1.76517 7444 ft 305 kts 89°
2026-05-01 10:05 54.54378 -1.72889 7078 ft 300 kts 89°
2026-05-01 10:05 54.54537 -1.69332 6723 ft 295 kts 89°
2026-05-01 10:05 54.54689 -1.65872 6386 ft 290 kts 88°
2026-05-01 10:05 54.54841 -1.62403 6055 ft 285 kts 89°
2026-05-01 10:06 54.54990 -1.59072 5673 ft 275 kts 89°
2026-05-01 10:06 54.55132 -1.55854 5084 ft 265 kts 89°
2026-05-01 10:06 54.55264 -1.52779 4613 ft 253 kts 88°
2026-05-01 10:06 54.55391 -1.49816 4207 ft 241 kts 88°
2026-05-01 10:07 54.55510 -1.47026 3870 ft 229 kts 88°
2026-05-01 10:07 54.55624 -1.44347 3654 ft 213 kts 89°
2026-05-01 10:07 54.55727 -1.41868 3604 ft 203 kts 89°
2026-05-01 10:07 54.55828 -1.39485 3562 ft 198 kts 89°
2026-05-01 10:08 54.56020 -1.34769 3494 ft 198 kts 89°
2026-05-01 10:08 54.56197 -1.32310 3489 ft 204 kts 72°
2026-05-01 10:08 54.56983 -1.30270 3500 ft 205 kts 50°
2026-05-01 10:09 54.57968 -1.28488 3496 ft 205 kts 46°
2026-05-01 10:09 54.59069 -1.26943 3490 ft 207 kts 22°
2026-05-01 10:09 54.60460 -1.26759 3491 ft 203 kts 340°
2026-05-01 10:09 54.61570 -1.28114 3492 ft 194 kts 299°
2026-05-01 10:10 54.61949 -1.30250 3493 ft 188 kts 263°
2026-05-01 10:10 54.61522 -1.32330 3500 ft 181 kts 229°
2026-05-01 10:10 54.59289 -1.33558 3498 ft 182 kts 165°
2026-05-01 10:11 54.58096 -1.32793 3496 ft 182 kts 168°
2026-05-01 10:11 54.56853 -1.32767 3491 ft 180 kts 200°
2026-05-01 10:11 54.55872 -1.34045 3493 ft 182 kts 236°
2026-05-01 10:11 54.55568 -1.36157 3495 ft 191 kts 273°
2026-05-01 10:12 54.56132 -1.38263 3498 ft 201 kts 313°
2026-05-01 10:12 54.57380 -1.39279 3495 ft 205 kts 355°
2026-05-01 10:12 54.59764 -1.36930 3502 ft 205 kts 51°
2026-05-01 10:13 54.60684 -1.35079 3499 ft 203 kts 53°
2026-05-01 10:13 54.61595 -1.33223 3496 ft 205 kts 50°
2026-05-01 10:13 54.62549 -1.31365 3496 ft 205 kts 51°
2026-05-01 10:14 54.62952 -1.27004 3493 ft 189 kts 127°
2026-05-01 10:14 54.61990 -1.25604 3486 ft 182 kts 162°
2026-05-01 10:14 54.60752 -1.25440 3434 ft 181 kts 195°
2026-05-01 10:14 54.59680 -1.26537 3156 ft 185 kts 223°
2026-05-01 10:15 54.58798 -1.28185 2860 ft 189 kts 227°
2026-05-01 10:15 54.57919 -1.29879 2578 ft 191 kts 227°
2026-05-01 10:15 54.57045 -1.31554 2497 ft 182 kts 227°
2026-05-01 10:15 54.56194 -1.33167 2496 ft 182 kts 225°
2026-05-01 10:16 54.55493 -1.34931 2487 ft 183 kts 253°
2026-05-01 10:16 54.55589 -1.37141 2491 ft 191 kts 292°
2026-05-01 10:16 54.57826 -1.39316 2497 ft 201 kts 10°
2026-05-01 10:17 54.59051 -1.38242 2497 ft 199 kts 46°
2026-05-01 10:17 54.60883 -1.34648 2435 ft 201 kts 51°
2026-05-01 10:17 54.61802 -1.32817 2148 ft 204 kts 51°
2026-05-01 10:18 54.63217 -1.28846 1879 ft 183 kts 94°
2026-05-01 10:18 54.62878 -1.26874 1876 ft 167 kts 130°
2026-05-01 10:18 54.61998 -1.25631 1895 ft 164 kts 161°
2026-05-01 10:19 54.60898 -1.25427 1892 ft 161 kts 195°
2026-05-01 10:19 54.59914 -1.26327 1902 ft 161 kts 218°
2026-05-01 10:19 54.59088 -1.27643 1899 ft 161 kts 225°
2026-05-01 10:20 54.57575 -1.30512 1829 ft 162 kts 225°
2026-05-01 10:20 54.56816 -1.31938 1634 ft 161 kts 225°
2026-05-01 10:20 54.56083 -1.33304 1456 ft 149 kts 225°
2026-05-01 10:20 54.55401 -1.34573 1252 ft 140 kts 225°
2026-05-01 10:21 54.54767 -1.35754 1058 ft 128 kts 225°
2026-05-01 10:21 54.53649 -1.37840 724 ft 116 kts 226°
2026-05-01 10:21 54.53103 -1.38859 578 ft 115 kts 225°
2026-05-01 10:22 54.52013 -1.40896 275 ft 114 kts 226°
2026-05-01 10:22 54.51025 -1.42742 129 ft 75 kts 227°
2026-05-01 10:23 54.50771 -1.43218 129 ft 44 kts 227°
2026-05-01 10:23 54.50425 -1.43864 129 ft 30 kts 227°
2026-05-01 10:23 54.50296 -1.44106 129 ft 16 kts 227°
2026-05-01 10:24 54.50280 -1.44318 129 ft 10 kts 317°
2026-05-01 10:24 54.50417 -1.44311 129 ft 11 kts 47°
2026-05-01 10:25 54.50541 -1.44077 129 ft 14 kts 47°
2026-05-01 10:25 54.50648 -1.43877 129 ft 11 kts 47°
2026-05-01 10:26 54.50707 -1.43786 129 ft 11 kts 26°
2026-05-01 10:26 54.50784 -1.43762 129 ft 11 kts 12°
2026-05-01 10:26 54.50911 -1.43619 129 ft 11 kts 43°
2026-05-01 10:27 54.51004 -1.43368 129 ft 12 kts 60°
2026-05-01 10:27 54.51096 -1.43166 129 ft 11 kts 30°
2026-05-01 10:28 54.51155 -1.43137 129 ft 6 kts 341°
2026-05-01 10:28 54.51184 -1.43138 129 ft 0 kts 101°
2026-05-01 10:28 54.51184 -1.43135 129 ft 0 kts 101°